STARLINK-33969, 63855

Orbit data source: Space-Track

STARLINK-33969, 63855 is a payload satellite owned by SpaceX/Seattle (US) in LEO that was launched on Wed, 07 May 2025 UTC via an FALCON 9 launch vehicle from the Air Force Eastern Test Range (AFETR). Payload-class satellites include a variety of spacecraft equipped with specific instruments for various scientific and technological missions. These include communications satellites like Starlink; space stations such as the ISS; scientific satellites like the Hubble; Earth observation satellites from companies like Planet Labs, Umbra, and HawkEye 360; GPS; miniature CubeSats for education and research; and military/defense satellites.

Loading next visibility...
Identifier
63855, 2025-093V
Orbit
LEO
Country
Flag of USUS
Related business
Manufacturer
SpaceX/Seattle
Mission
Operational Commercial Communications
Bus & Motor
STARLINK V2MO, Unknown motor
Mass
575 kg wet, ~530 kg dry
Launch date (UTC)
2025-05-07 (7 months ago)
Launch vehicle
FALCON 9
Launch site
Air Force Eastern Test Range (AFETR)
Object type
Payload
Rocket body
Debris
Shape & HBR
Box + 2 Pan, 17.7 m
Radar Cross Section
36.964 m², Large (>1 m²)

Expand to show TLE details & history
Last TLE update: 16 hours ago

TLE from 16 hours ago
0 STARLINK-33969
1 63855U 25093V   25348.95389203  .00023266  00000-0  85252-3 0  9991
2 63855  43.0016 196.3622 0001799 267.3926  92.6720 15.27571683 34797
Epoch: 2025-12-14T22:53Z
TLE epoch observation values (Epoch: 2025-12-14T22:53:36.271Z)
Latitude
0.00001°
Longitude
129.10167°
Altitude
482.907 km
Speed
7.626 km/s
True Right ascension
13h 05m 26s
True Declination
0° 00' 00"
Sunlit
Object was in daylight at epoch
Visualization orbit readout
Latitude
Unknown
Longitude
Unknown
Altitude
Unknown
Speed
Unknown
Apparent Right ascension
Unknown
Apparent Declination
Unknown
Sunlit
N/A
Visualization observer readout
Local Sidereal Time
13:23:54
Azimuth
Unknown
Elevation
Unknown
Doppler factor
Unknown
Orbital elements
Apogee altitude
486.254 km
Perigee altitude
483.784 km
Semi-major axis
6,863.156 km
Eccentricity
0.00018
Inclination
43.0016°
RAAN
196.3622°
Arg. of periapsis
267.3926°
True anomaly
92.69259°
Mean anomaly
92.672°
Eccentric anomaly
92.6823°
Mean motion
3.81731 °/min
Orbital period
94.31 mins
BSTAR
0.00085252
Loading maneuver chart data...
Computing Atmospheric mass density...
Loading historical data...
Loading historical data...
Loading historical data...
Loading historical data...
Loading historical data...
Loading historical data...
Loading historical data...

Documentation

Showing up to 5 results
|